Waarnemingen

Advertentie
Mijn weer
Aguilas, Spanje (8432): temperatuur & dauwpunt: 12.11.2017 00:00:00 - 18.11.2017 00:00:00 (CET)Aguilas, Spanje (8432): windsnelheid & windstoten: 12.11.2017 00:00:00 - 18.11.2017 00:00:00 (CET)Aguilas, Spanje (8432): windrichting: 12.11.2017 00:00:00 - 18.11.2017 00:00:00 (CET)Aguilas, Spanje (8432): luchtdruk: 12.11.2017 00:00:00 - 18.11.2017 00:00:00 (CET)Aguilas, Spanje (8432): zicht: 12.11.2017 00:00:00 - 18.11.2017 00:00:00 (CET)Aguilas, Spanje (8432): Zonneschijnduur: 12.11.2017 00:00:00 - 18.11.2017 00:00:00 (CET)Aguilas, Spanje (8432): neerslag: 12.11.2017 00:00:00 - 18.11.2017 00:00:00 (CET)
Datum & Tijd tt [°C] td [°C] ff [km/u] ff [kn] fx [km/u] fx [kn] dd ppp [hPa] vv [km] sd [min] rr [mm]
18.11.2017 00:00:00 - - - - - - - - - - -
17.11.2017 23:00:00 12,3 8,5 2 1 8 4 N 1020,5 20 0 0,0
17.11.2017 22:00:00 12,8 8,7 3 1 8 5 NNO 1020,3 20 0 0,0
17.11.2017 21:00:00 13,6 8,7 2 1 8 5 NNO 1020,4 17 0 0,0
17.11.2017 20:00:00 14,5 9,0 4 2 10 5 N 1020,3 16 0 0,0
17.11.2017 19:00:00 15,5 9,2 3 2 7 4 N 1019,9 20 0 -
17.11.2017 18:00:00 17,1 9,6 3 2 11 6 ZZO 1019,6 20 38 0,0
17.11.2017 17:00:00 18,4 9,9 5 3 14 7 Z 1019,3 20 60 0,0
17.11.2017 16:00:00 18,9 11,0 7 4 16 8 Z 1019,4 20 60 0,0
17.11.2017 15:00:00 18,9 10,8 9 5 16 9 Z 1019,6 20 60 0,0
17.11.2017 14:00:00 19,1 10,6 8 4 17 9 Z 1020,1 20 60 0,0
17.11.2017 13:00:00 18,9 10,2 10 6 19 10 Z 1020,6 20 60 -
17.11.2017 12:00:00 18,7 9,7 9 5 13 7 Z 1021,2 20 60 0,0
17.11.2017 11:00:00 18,6 9,9 5 3 12 6 Z 1021,4 20 60 0,0
17.11.2017 10:00:00 16,9 11,0 4 2 10 5 WNW 1021,3 20 60 0,0
17.11.2017 09:00:00 13,5 10,3 2 1 7 4 NNO 1021,2 20 36 0,0
17.11.2017 08:00:00 10,9 7,6 1 1 10 6 NO 1020,8 20 0 0,0
17.11.2017 07:00:00 11,6 8,3 6 4 11 6 N 1020,5 20 0 -
17.11.2017 06:00:00 10,9 7,6 6 3 9 5 N 1020,5 20 0 0,0
17.11.2017 05:00:00 10,6 7,1 3 2 8 4 NNO 1020,6 20 0 0,0
17.11.2017 04:00:00 10,2 6,5 2 1 8 4 NNO 1020,6 20 0 0,0
17.11.2017 03:00:00 10,4 6,7 6 3 9 5 NNW 1020,7 20 0 0,0
17.11.2017 02:00:00 11,2 7,6 4 2 7 4 N 1020,9 20 0 0,0
17.11.2017 01:00:00 11,8 7,8 4 2 9 5 N 1021,3 20 0 -
17.11.2017 00:00:00 11,7 7,6 3 1 7 4 NNW 1021,7 20 0 0,0
16.11.2017 23:00:00 12,5 7,8 3 2 8 4 NNO 1021,5 20 0 0,0
16.11.2017 22:00:00 12,5 7,8 5 3 9 5 N 1021,4 20 0 0,0
16.11.2017 21:00:00 12,9 7,6 0 0 8 4 N 1021,0 20 0 0,0
16.11.2017 20:00:00 14,7 8,1 3 2 8 4 NNO 1020,8 20 0 0,0
16.11.2017 19:00:00 15,6 8,4 3 1 7 4 ONO 1020,5 20 0 -
16.11.2017 18:00:00 16,7 8,4 5 3 12 6 ZO 1020,1 20 40 0,0
16.11.2017 17:00:00 17,9 9,6 6 3 14 8 ZO 1019,7 20 55 0,0
16.11.2017 16:00:00 18,5 10,0 7 4 17 9 ZZO 1019,5 20 60 0,0
16.11.2017 15:00:00 18,7 9,2 8 4 19 10 ZZO 1019,5 20 60 0,0
16.11.2017 14:00:00 18,7 9,4 9 5 18 10 Z 1019,6 20 60 0,0
16.11.2017 13:00:00 18,6 8,8 8 5 17 9 Z 1020,2 20 60 -
16.11.2017 12:00:00 18,5 8,1 8 5 15 8 Z 1020,6 20 60 0,0
16.11.2017 11:00:00 18,2 7,6 6 3 10 5 Z 1020,8 20 60 0,0
16.11.2017 10:00:00 17,6 7,8 3 1 5 3 ZZO 1020,7 20 60 0,0
16.11.2017 09:00:00 13,0 10,0 0 0 10 5 N 1020,4 20 43 0,0
16.11.2017 08:00:00 9,9 7,1 2 1 7 4 NO 1019,9 20 0 0,0
16.11.2017 07:00:00 9,9 7,0 4 2 8 4 NNW 1019,4 20 0 -
16.11.2017 06:00:00 10,5 7,6 5 3 8 4 N 1019,3 20 0 0,0
16.11.2017 05:00:00 10,6 7,3 4 2 6 3 NNW 1018,9 20 0 0,0
16.11.2017 04:00:00 10,7 6,8 0 0 8 4 N 1019,0 20 0 0,0
16.11.2017 03:00:00 11,0 7,0 3 1 8 5 NNO 1019,2 20 0 0,0
16.11.2017 02:00:00 11,3 7,0 2 1 10 5 N 1019,2 20 0 0,0
16.11.2017 01:00:00 11,7 7,4 4 2 10 5 NO 1019,5 20 0 -
16.11.2017 00:00:00 11,6 7,0 3 2 7 4 N 1019,5 20 0 0,0
15.11.2017 23:00:00 12,2 6,7 0 0 9 5 N 1019,7 20 0 0,0
15.11.2017 22:00:00 13,1 6,8 4 2 10 5 N 1019,6 20 0 0,0
15.11.2017 21:00:00 13,1 6,7 5 3 10 5 N 1019,5 20 0 0,0
15.11.2017 20:00:00 14,0 6,4 5 3 10 6 N 1019,3 20 0 0,0
15.11.2017 19:00:00 15,0 6,5 7 4 9 5 N 1019,0 20 0 -
15.11.2017 18:00:00 17,0 6,2 4 2 13 7 ZW 1018,7 20 44 0,0
15.11.2017 17:00:00 18,1 5,9 6 3 18 10 Z 1018,5 20 60 0,0
15.11.2017 16:00:00 18,9 6,1 8 4 21 11 ZZW 1018,8 20 60 0,0
15.11.2017 15:00:00 18,7 5,5 11 6 20 11 ZZW 1019,0 20 60 0,0
15.11.2017 14:00:00 18,8 5,3 10 6 20 11 Z 1019,6 20 60 0,0
15.11.2017 13:00:00 18,9 6,1 9 5 18 10 Z 1020,3 20 60 -
15.11.2017 12:00:00 18,4 5,6 10 5 15 8 Z 1021,2 20 60 0,0
15.11.2017 11:00:00 18,4 5,9 7 4 11 6 Z 1021,7 20 60 0,0
15.11.2017 10:00:00 17,1 5,6 4 2 9 5 WNW 1021,6 20 60 0,0
15.11.2017 09:00:00 13,5 5,6 1 1 8 4 O 1021,6 20 44 0,0
15.11.2017 08:00:00 10,7 3,8 4 2 9 5 N 1021,3 20 0 0,0
15.11.2017 07:00:00 10,7 3,4 4 2 10 5 N 1020,9 20 0 -
15.11.2017 06:00:00 11,1 4,8 4 2 10 5 N 1020,8 20 0 0,0
15.11.2017 05:00:00 10,9 4,6 6 3 12 6 N 1020,5 20 0 0,0
15.11.2017 04:00:00 10,3 3,6 5 3 9 5 NNW 1020,8 20 0 0,0
15.11.2017 03:00:00 10,8 3,0 6 3 9 5 N 1021,1 20 0 0,0
15.11.2017 02:00:00 10,3 4,6 3 2 7 4 N 1021,1 20 0 0,0
15.11.2017 01:00:00 10,7 4,1 0 0 10 5 N 1021,0 20 0 -
15.11.2017 00:00:00 10,4 3,4 2 1 7 4 NNW 1021,1 20 0 0,0
14.11.2017 23:00:00 12,0 2,7 3 2 8 5 NNO 1021,1 20 0 0,0
14.11.2017 22:00:00 11,0 1,7 4 2 9 5 NNW 1021,0 20 0 0,0
14.11.2017 21:00:00 12,7 0,4 4 2 11 6 NNO 1020,5 20 0 0,0
14.11.2017 20:00:00 12,2 -1,4 1 1 9 5 NNO 1019,8 20 0 0,0
14.11.2017 19:00:00 13,6 -1,2 4 2 9 5 NNO 1019,3 20 0 -
14.11.2017 18:00:00 16,0 -1,7 3 1 11 6 ZO 1018,4 20 45 0,0
14.11.2017 17:00:00 17,2 -2,5 6 4 18 10 ZO 1018,0 20 60 0,0
14.11.2017 16:00:00 17,7 -3,9 10 5 22 12 ZO 1017,8 20 60 0,0
14.11.2017 15:00:00 17,6 -3,3 11 6 22 12 ZO 1017,8 20 60 0,0
14.11.2017 14:00:00 17,4 -5,7 11 6 23 12 ZZO 1018,1 20 60 0,0
14.11.2017 13:00:00 17,3 -5,4 11 6 24 13 ZO 1018,7 20 60 -
14.11.2017 12:00:00 17,0 -5,4 5 3 15 8 Z 1019,1 20 60 0,0
14.11.2017 11:00:00 16,1 -8,2 8 4 14 7 Z 1019,2 20 60 0,0
14.11.2017 10:00:00 15,4 -8,2 7 4 16 8 WNW 1019,2 20 60 0,0
14.11.2017 09:00:00 13,7 -7,8 4 2 7 4 W 1019,1 20 46 0,0
14.11.2017 08:00:00 10,7 -8,6 4 2 22 12 NNW 1018,3 20 0 0,0
14.11.2017 07:00:00 11,3 -9,0 8 4 32 17 N 1017,9 20 0 -
14.11.2017 06:00:00 11,0 -8,2 8 4 14 7 NW 1017,5 20 0 0,0
14.11.2017 05:00:00 11,4 -8,6 11 6 23 13 NW 1017,3 20 0 0,0
14.11.2017 04:00:00 10,5 -7,5 2 1 7 4 N 1017,4 20 0 0,0
14.11.2017 03:00:00 11,4 -7,1 4 2 11 6 N 1017,3 20 0 0,0
14.11.2017 02:00:00 13,3 -7,8 5 3 19 10 N 1017,1 20 0 0,0
14.11.2017 01:00:00 15,0 -7,8 5 3 19 10 NO 1017,0 20 0 -
14.11.2017 00:00:00 15,7 -7,8 5 3 18 10 ONO 1017,1 20 0 0,0
13.11.2017 23:00:00 16,1 -6,4 8 4 30 16 O 1017,2 20 0 0,0
13.11.2017 22:00:00 17,1 -5,4 14 8 31 17 ONO 1017,0 20 0 0,0
13.11.2017 21:00:00 16,8 -3,9 8 4 20 11 NNO 1016,9 20 0 0,0
13.11.2017 20:00:00 17,5 -3,9 13 7 27 15 ONO 1016,5 20 0 0,0
13.11.2017 19:00:00 18,6 -3,6 15 8 27 15 ONO 1015,8 20 0 -
13.11.2017 18:00:00 19,9 5,9 7 4 22 12 W 1014,5 20 40 0,0
13.11.2017 17:00:00 21,6 4,6 13 7 29 16 ZZW 1013,8 20 60 0,0
13.11.2017 16:00:00 23,8 3,6 10 6 29 15 ZW 1013,0 20 60 0,0
13.11.2017 15:00:00 24,3 0,6 8 4 21 11 ZW 1013,2 20 60 0,0
13.11.2017 14:00:00 23,6 0,6 8 4 29 16 ZZW 1013,3 20 60 0,0
13.11.2017 13:00:00 22,2 3,8 17 9 32 17 ZO 1014,0 20 60 -
13.11.2017 12:00:00 23,3 -1,0 12 7 33 18 ZO 1014,5 20 60 0,0
13.11.2017 11:00:00 22,5 -3,9 16 9 32 18 N 1014,8 20 60 0,0
13.11.2017 10:00:00 20,4 0,9 7 4 18 10 WZW 1015,2 20 60 0,0
13.11.2017 09:00:00 17,2 0,9 4 2 14 7 ZW 1014,9 20 47 0,0
13.11.2017 08:00:00 14,9 0,6 5 3 23 13 W 1014,8 20 0 0,0
13.11.2017 07:00:00 14,3 0,2 4 2 19 10 ZW 1014,3 20 0 -
13.11.2017 06:00:00 14,7 -0,3 5 3 12 6 W 1014,6 20 0 0,0
13.11.2017 05:00:00 14,5 -0,7 3 2 10 5 W 1014,6 20 0 0,0
13.11.2017 04:00:00 13,5 -0,5 6 3 11 6 WNW 1015,0 20 0 0,0
13.11.2017 03:00:00 13,8 -1,0 2 1 12 7 OZO 1015,5 20 0 0,0
13.11.2017 02:00:00 14,2 -0,7 4 2 10 5 Z 1015,9 20 0 0,0
13.11.2017 01:00:00 15,1 -1,4 1 1 6 3 ZO 1016,2 20 0 -
13.11.2017 00:00:00 16,6 -1,0 5 3 24 13 ZZW 1016,7 20 0 0,0
12.11.2017 23:00:00 17,3 0,4 10 6 24 13 NW 1016,7 20 0 0,0
12.11.2017 22:00:00 18,6 0,2 13 7 22 12 NNW 1016,6 20 0 0,0
12.11.2017 21:00:00 15,1 2,3 3 1 10 5 NNO 1016,7 20 0 0,0
12.11.2017 20:00:00 15,9 4,3 2 1 11 6 NNO 1016,8 20 0 0,0
12.11.2017 19:00:00 18,0 9,8 6 4 8 4 NNO 1016,6 20 0 -
12.11.2017 18:00:00 20,1 11,3 5 3 8 5 O 1016,3 20 38 0,0
12.11.2017 17:00:00 21,4 12,0 6 4 14 8 ZZW 1016,4 20 60 0,0
12.11.2017 16:00:00 22,4 10,5 6 4 19 10 ZZW 1016,7 20 60 0,0
12.11.2017 15:00:00 22,5 10,6 7 4 18 10 ZZW 1017,3 20 60 0,0
12.11.2017 14:00:00 22,6 5,1 7 4 15 8 ZZW 1018,0 20 60 0,0
12.11.2017 13:00:00 21,8 7,6 7 4 19 11 ZZW 1018,9 20 60 -
12.11.2017 12:00:00 21,9 3,6 6 4 12 7 ZZO 1019,6 20 60 0,0
12.11.2017 11:00:00 21,0 3,2 6 4 10 6 Z 1020,2 20 60 0,0
12.11.2017 10:00:00 19,9 2,7 5 3 10 5 OZO 1020,6 20 60 0,0
12.11.2017 09:00:00 16,2 3,2 1 1 6 4 NNO 1020,7 20 48 0,0
12.11.2017 08:00:00 11,6 3,0 2 1 10 5 NNW 1020,6 20 0 0,0
12.11.2017 07:00:00 12,1 3,4 5 3 10 5 NNW 1020,6 20 0 -
12.11.2017 06:00:00 13,0 2,9 4 2 11 6 WNW 1020,8 20 0 0,0
12.11.2017 05:00:00 14,6 3,0 7 4 20 11 WNW 1020,6 20 0 0,0
12.11.2017 04:00:00 14,0 3,2 5 3 20 11 NNW 1021,0 20 0 0,0
12.11.2017 03:00:00 14,4 3,6 11 6 20 11 NW 1021,3 20 0 0,0
12.11.2017 02:00:00 13,8 3,6 7 4 15 8 W 1021,6 20 0 0,0
12.11.2017 01:00:00 13,3 4,1 7 4 12 7 WNW 1022,1 20 0 -
12.11.2017 00:00:00 13,7 3,9 6 3 13 7 W 1022,9 20 0 0,0

tt = temperatuur
td = dauwpunt
ff = windsnelheid
fx = windstoten
dd = windrichting
ppp = luchtdruk
vv = zicht
sd = Zonneschijnduur
rr = neerslag

Weerstations in de omgeving